CAPE
2045 2005 1874 1230 1479 1628 1941 1474 1023 582 297 511 814 1537 1687 1479 1242 1616 1467 1 0 0 0 0 0 0 0 0 0 0 0 0 1 0 0 1 4 5
1746 1922 2064 1402 2077 1642 2746 2199 1797 1774 873 711 820 1439 1723 1679 1327 1512 1307 11 0 0 0 0 0 0 0 0 0 0 0 0 1 1 2 2 7 7
2009 1937 2152 2162 1188 1585 2196 2621 2709 2473 1427 1070 1423 1407 1866 1984 1541 1388 702 634 33 0 0 0 0 0 0 0 0 0 0 0 2 2 3 4 5 8
1948 2086 1845 1996 1879 1827 1653 1869 2229 2284 2136 1965 2414 1101 1671 1710 1492 690 581 93 79 0 0 0 0 0 0 0 0 0 0 0 0 0 0 0 1 1
1959 1969 1899 1828 1963 1433 1890 1686 2196 2404 2607 1744 1648 1277 2139 1418 502 90 12 9 12 0 0 0 0 0 0 0 0 0 0 0 0 0 0 0 0 0
1890 1954 1876 1871 1936 2320 2170 2137 2659 2427 2220 1858 864 1407 2356 1807 897 99 11 18 19 2 0 0 0 0 0 0 0 0 0 0 0 0 0 0 0 0
1401 1626 1746 1677 1295 1494 2005 2233 2248 2254 2292 1405 1709 1536 1679 1301 801 98 10 11 13 12 1 0 0 0 0 0 0 0 0 0 0 0 0 0 0 0
748 982 1215 986 816 374 232 466 1427 2509 2403 1445 979 1275 1508 2025 2189 311 5 12 8 21 6 6 0 0 0 0 0 0 0 0 0 0 0 0 0 0
355 285 284 260 639 1263 632 0 18 161 534 2355 1921 1787 1901 2002 2850 1042 68 45 57 16 13 5 0 0 0 0 0 0 0 0 0 0 0 0 0 0
74 548 524 547 732 1074 1669 1620 1614 1424 786 776 1358 1758 1885 3022 3123 2665 1170 432 51 11 12 11 29 1 0 0 0 0 0 0 0 0 0 0 0 0
1 4 122 648 518 505 1123 1249 1517 1803 784 842 604 170 148 736 1773 1681 832 5 10 11 29 10 9 9 3 5 0 0 0 0 0 0 0 0 0 0
1 0 0 0 2 158 358 1110 1813 1204 1411 1436 559 16 1 8 6 1041 570 79 5 12 17 5 6 5 5 8 6 0 0 0 0 0 0 0 0 0
3 4 1 0 1 0 10 976 1333 1571 1248 1216 735 65 12 9 6 3 15 19 1 1 3 3 10 24 12 9 8 7 4 0 0 0 0 0 0 0
8 7 8 2 0 0 1 0 43 64 703 221 12 5 3 4 6 3 2 2 2 2 3 0 7 6 2 4 4 7 1 0 0 0 0 0 0 0
8 5 1 2 0 0 0 0 1 3 3 6 9 3 3 2 3 4 5 3 2 2 1 1 8 4 0 7 3 1 4 1 0 1 0 0 0 0
6 10 6 3 3 6 14 1 2 4 2 4 8 9 11 10 6 5 7 4 1 5 1 0 1 0 0 3 0 0 0 0 0 0 0 0 0 0
6 6 5 3 7 12 17 3 3 2 1 2 3 6 9 7 7 6 4 2 0 1 4 2 0 0 0 11 22 1 0 0 0 0 0 0 0 0
2 4 7 7 9 21 5 1 4 4 3 5 3 4 3 4 7 11 2 1 0 1 0 0 0 0 0 0 0 0 0 0 0 0 0 0 0 0
4 2 2 2 3 2 2 2 3 5 6 5 5 7 5 5 1 0 0 0 0 0 0 0 0 0 0 0 0 0 0 0 0 0 0 0 0 0
5 3 3 2 3 3 4 3 5 4 6 7 4 7 5 2 3 4 1 0 0 0 0 0 0 0 0 0 0 0 0 0 0 0 0 0 0 0
18 9 3 2 3 3 3 10 12 6 7 5 6 5 1 0 0 0 0 0 0 1 1 1 0 0 0 0 0 0 0 0 0 5 2 0 0 0
9 13 11 7 3 2 4 1 1 0 0 1 0 0 0 0 0 0 0 0 6 9 11 0 0 0 0 1 1 0 6 0 0 0 0 0 0 0
9 8 20 4 1 0 0 0 0 0 0 0 0 0 3 3 0 0 0 0 0 0 0 0 0 0 0 0 0 0 0 0 0 0 0 0 0 0
CIN
-7 -3 -1 0 0 0 0 0 0 0 -1 -1 -1 -33 -29 -33 -61 -28 -21 -1 0 0 0 0 0 0 0 0 0 0 0 0 0 0 0 0 0 0
-2 -5 -3 0 0 0 0 0 0 0 0 0 0 -8 -24 -14 -55 -30 -30 -82 0 0 0 0 0 0 0 0 0 0 0 0 0 0 0 0 0 0
-15 -7 -7 -9 0 0 -1 0 0 -1 0 0 0 -5 -17 -11 -11 -17 -54 -45 -67 0 0 0 0 0 0 0 0 0 0 0 0 0 0 0 -1 0
-12 -12 -6 -3 -3 -3 0 -1 0 0 0 0 0 0 -1 -1 -3 -42 -36 -111 -104 0 0 0 0 0 0 0 0 0 0 0 0 0 0 0 0 0
-9 -8 -10 -11 -2 -1 -1 0 0 0 0 0 0 0 -2 0 -47 -100 -33 0 0 0 0 0 0 0 0 0 0 0 0 0 0 0 0 0 0 0
-5 -8 -9 -10 -7 -5 -3 0 0 -1 0 0 0 0 0 0 -12 -113 0 0 0 0 0 0 0 0 0 0 0 0 0 0 0 0 0 0 0 0
-10 -3 -2 -17 -40 -37 -5 0 -1 0 0 0 0 0 0 0 -16 -121 -28 0 0 0 0 0 0 0 0 0 0 0 0 0 0 0 0 0 0 0
-20 -19 -7 -33 -66 -148 -181 -110 -28 0 0 0 0 0 0 0 0 -57 0 0 0 0 0 0 0 0 0 0 0 0 0 0 0 0 0 0 0 0
-38 -67 -62 -70 -47 -17 -113 0 -56 -198 -99 -4 0 0 0 0 0 -4 -145 -136 -83 0 0 0 0 0 0 0 0 0 0 0 0 0 0 0 0 0
-36 -29 -30 -32 -18 -4 0 0 -3 -28 -89 -60 -10 -1 0 0 0 0 -5 -9 -19 0 -1 0 0 0 0 0 0 0 0 0 0 0 0 0 0 0
0 0 -48 -34 -45 -37 0 0 0 0 -49 -70 -86 -153 -13 -71 -10 0 -2 -31 0 0 0 0 0 0 0 0 0 0 0 0 0 0 0 0 0 0
0 0 0 0 0 -70 -21 0 0 -3 0 -3 -65 -11 -8 -27 -35 -8 -7 -80 0 0 0 0 0 0 0 0 0 0 0 0 0 0 0 0 0 0
0 0 0 0 -4 0 -15 0 0 -2 -6 -3 -20 -106 0 0 0 0 -72 -22 0 0 0 0 0 0 0 0 0 0 -1 0 0 0 0 0 0 0
0 0 0 -3 0 0 0 0 -24 -46 -7 -52 -59 0 0 0 0 0 0 0 0 0 0 0 0 0 -1 0 0 0 0 0 0 0 0 0 0 0
0 0 0 -1 0 0 0 0 0 0 0 0 0 0 0 0 0 0 0 0 0 0 0 0 -1 0 0 -1 0 0 0 0 0 -23 -1 0 0 0
0 0 0 0 0 -1 -3 0 0 0 0 0 0 0 0 0 0 0 0 0 0 0 0 0 0 0 0 -45 0 0 0 0 0 0 0 0 0 0
0 0 0 0 0 0 -1 0 0 0 0 0 0 0 0 0 0 0 0 -1 -1 0 0 0 0 0 0 -56 -22 -7 0 0 0 0 0 0 0 0
0 0 0 0 0 0 -1 0 0 0 0 0 0 0 0 0 0 0 -2 -2 -1 0 0 0 0 0 0 0 0 0 0 0 0 0 0 0 0 0
0 0 0 0 0 0 0 0 0 0 0 0 0 0 0 0 -1 -1 0 0 0 0 0 0 0 0 0 0 0 0 0 0 0 0 0 0 0 0
0 0 0 0 0 0 0 0 0 0 0 0 -1 -1 -1 -1 0 0 0 0 0 0 0 0 0 0 0 0 0 0 0 0 0 0 0 0 0 0
0 0 0 0 0 0 0 0 0 0 0 0 -1 -1 -1 0 0 0 0 0 0 0 0 0 0 0 0 0 0 0 0 0 0 0 0 0 0 0
0 0 0 0 0 0 0 0 -1 -1 0 -1 0 0 0 0 0 0 0 0 0 0 0 0 0 0 0 0 0 0 0 0 0 0 0 0 0 0
0 0 0 0 0 0 0 0 0 0 0 0 0 0 0 0 0 0 0 0 0 0 0 0 0 0 0 0 0 0 0 0 0 0 0 0 0 0
Wind_Speed
8 8 7 6 5 5 6 6 7 8 6 3 3 1 2 3 2 3 3 7 7 8 10 9 10 10 10 10 11 10 10 10 10 11 11 12 12 14
8 9 8 7 6 6 5 6 6 7 8 3 4 2 2 3 3 4 4 7 6 9 10 11 10 10 10 10 11 11 11 11 11 11 12 12 11 12
10 11 11 10 8 7 6 6 6 6 8 7 4 3 4 5 3 2 5 5 5 7 9 9 11 11 11 11 11 12 11 11 10 12 12 12 13 14
11 10 12 8 10 9 7 9 7 7 6 11 7 7 5 2 3 4 4 4 6 7 8 9 10 10 11 11 12 12 11 11 11 11 12 12 13 14
11 11 12 12 11 10 9 9 7 6 6 7 8 7 3 3 3 3 4 4 4 11 10 9 10 11 11 11 11 11 10 11 11 10 11 11 13 14
12 11 12 13 12 11 10 10 8 7 7 7 9 7 6 4 4 3 3 1 5 6 6 8 9 12 13 12 12 11 10 10 11 11 12 12 13 13
11 12 13 14 13 13 9 9 10 9 8 9 8 8 8 4 6 4 4 5 3 3 6 7 8 7 8 8 11 12 12 12 12 12 12 12 12 12
13 14 13 13 14 16 16 16 13 11 12 10 10 11 12 9 7 5 6 4 4 6 6 6 6 6 7 6 10 13 13 14 13 13 11 12 12 11
15 13 13 12 13 15 15 17 17 16 17 12 13 13 12 11 9 9 10 8 6 9 7 7 7 7 5 8 12 12 12 11 11 12 12 12 11 10
13 16 17 16 16 15 15 15 14 14 15 14 17 15 14 10 11 11 12 8 4 8 8 5 6 4 5 6 11 12 10 9 9 11 11 10 9 8
14 15 15 14 15 13 17 17 16 14 11 14 12 4 6 6 8 6 6 8 3 5 8 4 5 5 4 4 4 11 6 8 7 8 8 7 7 7
13 15 17 19 14 12 14 15 14 12 12 9 6 5 4 4 9 9 8 8 5 3 5 3 9 5 4 2 3 3 3 4 6 6 6 6 5 4
11 11 12 11 14 16 16 13 14 11 9 7 4 4 4 4 2 2 2 7 6 3 7 5 8 5 4 5 3 3 3 4 5 5 7 6 6 5
12 11 12 11 9 9 11 16 11 6 4 5 5 6 6 4 2 5 6 6 6 2 9 13 9 9 8 5 4 5 3 3 5 5 4 5 7 5
10 14 16 12 12 12 12 13 10 7 6 7 7 4 4 6 11 11 9 12 12 10 8 5 11 12 11 8 6 6 6 6 5 5 4 4 2 1
11 11 12 14 13 11 6 5 6 7 7 7 7 7 7 7 7 5 9 8 9 8 9 10 9 4 4 7 7 10 7 4 6 5 4 4 3 2
6 5 6 6 6 6 6 5 7 8 9 8 9 8 7 7 7 6 6 6 9 6 4 6 7 9 6 8 8 9 7 8 7 6 4 4 3 2
2 3 2 4 4 4 5 5 8 10 9 10 9 9 9 9 9 7 7 8 10 6 6 6 9 10 7 9 10 9 7 7 6 5 4 3 3 3
7 7 6 6 5 5 5 8 8 7 11 10 10 10 9 9 10 8 7 8 6 4 4 3 6 7 10 9 5 13 7 6 6 4 3 2 1 1
9 9 8 7 7 7 7 9 9 9 9 10 11 10 9 9 8 7 5 4 6 5 4 4 7 6 7 7 6 5 9 7 5 4 4 3 0 0
9 9 9 9 9 9 9 9 9 9 9 10 10 9 8 7 6 5 4 6 10 9 9 8 7 5 8 8 8 8 6 7 4 2 3 3 2 3
10 9 9 8 8 7 8 9 9 9 9 9 10 8 6 7 8 7 8 9 7 8 7 8 7 6 5 3 6 8 6 6 4 2 3 3 4 4
10 10 9 10 8 7 7 9 9 8 9 11 10 10 9 8 8 7 7 5 6 8 8 8 6 4 4 4 4 5 7 5 4 4 6 5 2 4
Wind_Direction
236 239 248 258 252 241 249 250 268 279 278 268 280 133 235 233 175 214 177 127 124 124 117 125 121 117 114 116 113 108 101 91 81 74 70 66 63 66
243 239 241 251 249 239 233 246 248 261 276 267 264 317 280 257 157 204 115 127 131 136 138 130 128 124 121 120 114 106 100 97 93 87 81 77 75 78
258 245 241 235 246 243 233 243 236 233 251 259 269 280 252 240 186 173 158 136 131 135 131 133 131 126 127 120 111 105 101 96 92 89 87 82 74 74
253 255 248 249 241 241 244 242 237 227 246 267 274 273 268 243 190 184 164 140 158 138 135 132 123 121 116 111 106 105 102 94 90 93 92 93 93 91
254 252 249 248 245 249 240 248 241 233 230 255 270 267 266 178 150 111 130 141 127 122 109 110 118 118 115 113 113 113 111 108 100 88 87 86 86 88
256 252 251 248 245 249 243 244 249 248 246 244 261 258 240 179 177 154 157 156 148 152 111 101 142 130 128 122 123 120 109 105 101 96 85 77 80 83
257 256 248 246 244 240 241 244 233 244 247 249 255 249 243 193 207 158 167 159 156 155 159 164 156 153 138 139 124 127 120 113 109 101 94 91 88 89
261 257 255 250 242 238 231 236 239 234 240 239 247 244 251 235 212 172 144 158 183 179 170 178 154 165 146 161 126 135 130 123 116 112 111 105 97 94
256 257 255 254 242 252 235 233 237 231 235 246 246 245 245 233 220 184 183 189 192 154 173 163 168 155 152 127 139 136 126 128 128 122 113 109 106 106
262 259 253 257 254 252 250 248 237 232 226 232 240 249 247 239 217 210 207 186 105 155 174 149 155 139 136 131 134 133 132 134 142 131 129 129 124 119
265 261 260 253 247 226 246 252 251 243 205 214 246 348 349 221 214 196 172 166 150 180 192 136 141 113 100 106 120 114 132 151 152 141 138 144 143 153
279 268 253 255 258 223 229 235 244 242 236 229 227 221 226 232 235 203 182 193 145 144 183 136 143 142 119 61 97 80 129 183 154 165 167 169 186 248
278 275 269 248 237 227 222 244 244 259 241 230 202 136 97 78 73 40 147 175 168 194 180 140 155 141 85 121 123 153 223 163 185 191 204 208 219 273
266 264 262 266 282 248 234 234 234 207 182 167 138 145 139 99 64 41 80 66 44 35 182 163 146 151 126 129 171 153 189 207 201 193 181 152 207 208
262 255 261 250 239 261 247 234 193 196 169 159 156 155 144 127 133 123 91 90 74 57 42 8 132 135 138 149 144 156 160 186 185 175 158 144 100 62
270 258 247 244 247 260 253 207 180 167 159 145 121 111 115 126 113 109 115 104 96 77 47 50 78 95 98 127 146 160 157 142 166 153 136 120 128 77
278 275 246 218 215 220 215 181 139 125 118 122 123 124 122 110 96 106 105 99 104 108 92 71 81 84 65 131 138 138 127 143 145 133 166 132 108 122
198 278 244 211 182 159 124 117 118 118 125 125 121 121 116 115 119 108 104 111 121 120 119 136 141 125 119 67 55 133 135 127 127 126 126 172 165 164
43 33 34 43 54 91 110 110 108 116 118 117 117 118 117 116 124 122 124 132 128 127 136 180 178 128 131 117 107 23 130 128 137 129 149 197 258 156
40 40 39 42 58 70 75 94 101 104 109 111 113 115 121 129 131 133 132 127 123 123 139 137 131 136 139 135 133 100 19 140 164 165 176 178 153 300
42 46 51 54 52 69 75 78 91 100 109 113 116 122 129 134 130 134 131 159 158 157 142 127 82 66 108 123 124 136 119 39 11 248 163 254 303 299
49 55 51 46 57 66 83 101 107 102 109 119 126 131 127 138 142 163 164 161 158 149 127 109 134 132 139 136 118 137 152 142 120 73 34 352 333 322
59 62 69 82 77 66 80 97 94 98 116 127 136 144 153 157 156 156 162 142 130 128 142 132 129 125 116 105 117 132 131 169 162 180 165 187 240 289